Notices

What's New in latest Release from April 7th, 2021:

- Updated Glossary, including Speed of Maximum Gust, and Total Hourly Precipitation

- Updated national and regional climate services offices contacts and prices information

- Addition of station inventory lists for 1981-2010, 1971-2000, and 1961-1990 Normals.

If you haven't already, please take our survey and provide feedback about our website: https://eccc.sondage-survey.ca/f/LanguageSelection.aspx?s=442ca660-fcf1-47c0-95a9-59707d6fd709

Hourly Data Report for April 17, 2018

KENORA A
ONTARIO
Current Station Operator: NAVCAN

49°47'18.000" N
94°21'47.000" W
409.70 m
6034076
71850
YQK

Download Data

Hourly Data (April 2018)
Hourly Data Report for April 17, 2018
TIME
LST
Temp Definition
°C
Dew Point Definition
°C
Rel Hum Definition
%
Precip. Amount Definition
mm

Wind Dir Definition
10's deg

Wind Spd Definition
km/h
Visibility Definition
km
Stn Press Definition
kPa
Hmdx Definition


Wind Chill Definition


Weather Definition


00:00 -2.9 -14.6 40   36 13 24.1 97.13   -8 Clear
01:00 -3.6 -15.3 40   36 12 24.1 97.11   -8 LegendNANA
02:00 -4.6 -15.7 42   2 10 24.1 97.09   -9 LegendNANA
03:00 -4.9 -15.6 43   36 9 24.1 97.08   -9 Clear
04:00 -5.8 -15.4 47   2 12 24.1 97.07   -11 LegendNANA
05:00 -6.3 -15.7 48   2 11 24.1 97.05   -11 LegendNANA
06:00 -6.5 -15.4 49   3 11 24.1 97.01   -11 Mainly Clear
07:00 -4.5 -15.5 42   2 9 24.1 97.10   -8 LegendNANA
08:00 -2.4 -16.0 35   4 17 24.1 97.13   -8 LegendNANA
09:00 -0.2 -15.1 32   4 20 24.1 97.10   -5 Mainly Clear
10:00 1.8 -13.2 32   6 15 24.1 97.04     LegendNANA
11:00 3.1 -12.7 30   3 18 24.1 96.94     LegendNANA
12:00 4.8 -11.5 30   2 15 24.1 96.90     Mainly Clear
13:00 6.1 -11.3 28   5 19 24.1 96.81     LegendNANA
14:00 6.9 -11.9 25   3 16 24.1 96.79     LegendNANA
15:00 7.3 -10.3 27   4 16 24.1 96.79     Mainly Clear
16:00 8.4 -12.8 21   5 22 24.1 96.78     LegendNANA
17:00 8.0 -10.8 25   6 17 24.1 96.82     LegendNANA
18:00 7.8 -12.0 23   6 19 24.1 96.88     Mainly Clear
19:00 6.8 -13.3 22   5 8 24.1 96.92     LegendNANA
20:00 5.1 -12.1 28   4 8 24.1 97.00     LegendNANA
21:00 4.3 -13.1 27   3 8 24.1 97.04     Mainly Clear
22:00 2.8 -11.0 36   5 13 24.1 97.10     LegendNANA
23:00 1.6 -11.7 37   5 10 24.1 97.09     LegendNANA

Notes on Data Quality.

Legend

  • E = Estimated
  • M = Missing
  • NA = Not Available*
  • [empty] = Indicates an unobserved value
Date modified: